Location: Biltmore Gardens
(41.6070°N, 83.4666°W)
Time: 15:12:19
(UTC+00:00)

MOZ.5/SAFIR/RUBIN 5/SL-8 - Pass Details

Date: 14 July 2020
Orbit: 677 x 706 km, 98.1° (Epoch: 12 August)

Event Time Altitude Azimuth Distance (km) Brightness Sun altitude
Exits shadow 07:00:30 65° 144° (SE) 772 3.8 -24.1°
Maximum altitude 07:01:10 80° 75° (ENE) 718 3.8 -24.1°
Drops below altitude 10° 07:05:57 10° 349° (N) 2,183 7.1 -23.7°
Sets 07:08:14 0° 349° (N) 3,107 8.0 -23.6°
